Погода в Комотини

Греция     41°07′07″N   25°24′13″E
темп.,
°C
ветер,
м/с
пор.,
м/с
влажн.,
%
обл.,
%
осадки,
мм/ч
давл.,
гПа
погр.,
м
25 января, пн
пн2523:00+12ю6138298 0.0 1007582
02:00+13ююз11187699 0.6 1004877
05:00+12ююз131884100 1.2 10031064
08:00+12ююз121783100 3.5 10001092
11:00+13зюз101375100 2.3 10011172
14:00+14зюз9136682 2.8 10021243
17:00+12зюз512650 0.0 1005374
20:00+11ююз367643 0.0 1007130
26 января, вт
вт2623:00+10юз357474 0.0 100884
02:00+10зюз237951 0.1 100647
05:00+9юз128158 0.0 100535
08:00+10ююз368374 0.0 1005142
11:00+14юз81169100 0.0 10041150
14:00+13ююз71275100 0.3 10021088
17:00+12ююз61487100 3.1 1000990
20:00+12ю101691100 6.8 998916
27 января, ср
ср2723:00+13ююз121893100 20.4 996959
02:00+4ссв91583100 26.1 995642
05:00+3с101777100 0.8 997942
08:00+2с81676100 0.9 10001167
11:00+4ссв61169100 0.1 10021333
14:00+5ссв71064100 0.1 10041343
17:00+4с4868100 0.0 1005900
20:00+2ссв377398 0.1 1008346
28 января, чт
чт2823:00+2св2474100 0.0 1009192
02:00+2ссв2270100 0.0 101171
05:00+1св1269100 0.0 101238
08:00+1всв126788 0.0 101433
11:00+4св115012 0.0 1015357
14:00+6зюз33486 0.0 1014860
17:00+5юз23581 0.0 1014124
20:00+3ю11600 0.0 101494
29 января, пт
пт2923:00+2сз116411 0.0 101451
02:00+2сз016744 0.0 101463
05:00+2св116849 0.0 101337
08:00+2юв016874 0.0 101333
11:00+6зюз245571 0.0 1012372
14:00+8зюз465679 0.0 1011701
17:00+7зюз346320 0.0 1009130
20:00+6з236956 0.0 100979